Flag for Poland Weather past 2 weeks in Lódz, Poland

Now
50 °F

Fog.


Feels Like: 50 °F
Forecast: 50 / 74 °F
Wind: 1 mph from East

Location: Lodz

Current Time: Apr 27, 2015 at 12:05:07 AM

Latest Report: Apr 26, 2015 at 10:00 PM


Visibility: 5 mi

Pressure: 29.78 "Hg

Humidity: 94%

Dew point: 49 °F

Location of LódzLocation

Historic Weather in Lódz — Graph

°F

Lódz temperature yesterday

Maximum temperature yesterday: 63 °F (at 3:00 PM)
Minimum temperature yesterday: 50 °F (at 10:00 PM)
Average temperature yesterday: 58 °F

Past Weeks' High & Low Weather Summary

 TemperatureHumidityPressure
High71 °F (Apr 25, 3:00 PM)94% (Apr 26, 10:00 PM)30.40 "Hg (Apr 26, 10:00 PM)
Low29 °F (Apr 22, 6:00 AM)26% (Apr 12, 4:00 PM)29.75 "Hg (Apr 16, 3:00 AM)
Average49 °F58%30.04 "Hg
* Reported Apr 11 10:00 PM — Apr 26 10:00 PM, Lódz, Weather by CustomWeather, © 2015

Note: Actual official high and low records may vary slightly from our data, if they occured in-between our weather recording intervals... More about our weather records

Advertising

Lódz weather history for previous 24 hours

 ConditionsComfort  
Time TempWeatherWind HumidityBarometerVisibility
10:00 PM
Sun, Apr 26
50 °FFog.1 mph94%29.78 "Hg5 mi
9:00 PM53 °FPassing clouds.No wind89%29.78 "Hg9 mi
8:00 PM57 °FOvercast.1 mph82%29.77 "Hg12 mi
7:00 PM59 °FOvercast.1 mph72%29.77 "Hg12 mi
6:00 PM58 °FOvercast.1 mph73%29.77 "Hg12 mi
5:00 PM59 °FSprinkles. Overcast.2 mph79%29.78 "Hg10 mi
4:00 PM61 °FOvercast.3 mph71%29.77 "Hg12 mi
3:00 PM63 °FOvercast.3 mph69%29.77 "Hg12 mi
2:00 PM61 °FPartly sunny.5 mph74%29.79 "Hg12 mi
1:00 PM58 °FOvercast.5 mph82%29.80 "Hg12 mi
12:00 PM59 °FOvercast.5 mph81%29.81 "Hg12 mi
11:00 AM57 °FOvercast.3 mph87%29.82 "Hg12 mi
10:00 AM55 °FLight rain. Overcast.2 mph87%29.83 "Hg9 mi
9:00 AM57 °FLight rain. Overcast.3 mph73%29.81 "Hg12 mi
8:00 AM56 °FLight rain. Overcast.2 mph72%29.81 "Hg12 mi
7:00 AM56 °FLight rain. Overcast.1 mph67%29.80 "Hg12 mi
6:00 AM57 °FOvercast.2 mph58%29.79 "Hg12 mi
4:00 AM57 °FOvercast.2 mph55%29.78 "Hg12 mi
3:00 AM57 °FOvercast.N/A53%29.78 "Hg11 mi
2:00 AM57 °FOvercast.N/A55%29.79 "Hg12 mi
1:00 AM58 °FOvercast.N/A51%29.79 "Hg12 mi
12:00 AM61 °FOvercast.N/A45%29.78 "Hg12 mi
Weather by CustomWeather, © 2015

See weather overviewHow to use our weather pages